[[{"header":{"parameterUnit":"m.s-1","parameterCategory":1,"la1":30.2991,"la2":30.254,"lo1":-89.0895,"lo2":-89.0444,"dy":0.0017,"dx":0.0017,"nx":28,"ny":28,"refTime":"2024-05-21T09:00:00:Z","depth":0,"parameterNumber":2,"parameterNumberName":"U-component_of_WINDS"},"data":[0,0,0,0,0,0,0,0,0,0,0,0,0,0,0,0,0,0,0,0,0,0,0,0,0,0,0,0,0,0,0,0,0,0,0,0,0,0,0,0,0,0,0,0,0,0,0,0,0,0,0,0,0,0,0,0,0,0,-0.8887,-0.8887,0,-0.8846,-0.8845,-0.8845,-0.8814,-0.8814,-0.8813,-0.8813,-0.8775,-0.8774,-0.8773,0,0,0,0,0,0,0,0,0,0,0,0,0,-0.8943,-0.8942,-0.8887,-0.8887,-0.8886,-0.8846,-0.8845,-0.8844,-0.8814,-0.8814,-0.8813,-0.8813,-0.8775,-0.8774,-0.8773,0,0,0,0,0,0,0,0,0,0,0,0,0,-0.8912,-0.8942,-0.8887,-0.8866,-0.8863,-0.8846,-0.8845,-0.8844,-0.8814,-0.8814,-0.8813,-0.8813,-0.8775,-0.8774,-0.8773,-0.8774,0,0,-0.877,-0.8769,0,0,0,0,0,0,0,0,-0.8914,-0.891,-0.8869,-0.8867,-0.8865,-0.8834,-0.8851,-0.8821,-0.8814,-0.8833,-0.8813,-0.8813,-0.8795,-0.8792,-0.8786,-0.8773,-0.8771,-0.8769,-0.8769,-0.8768,-0.8768,0,0,0,0,0,0,0,-0.8916,-0.8912,-0.8871,-0.8869,-0.8866,-0.8859,-0.8855,-0.8845,-0.8817,-0.8831,-0.8829,-0.8824,-0.8794,-0.8787,-0.8785,-0.877,-0.8769,-0.8768,-0.8768,-0.8767,-0.8756,-0.8757,0,0,0,0,0,0,-0.8921,-0.8914,-0.8872,-0.8869,-0.8889,-0.8859,-0.8853,-0.8845,-0.8817,-0.8812,-0.8825,-0.8823,-0.8789,-0.8786,-0.8783,-0.8783,-0.8768,-0.8767,-0.8767,-0.8756,-0.8756,-0.8757,0,0,0,0,0,0,-0.8922,-0.8918,-0.8874,-0.8891,-0.8885,-0.8858,-0.8849,-0.8844,-0.8837,-0.8812,-0.8807,-0.8822,-0.8788,-0.8785,-0.8776,-0.8781,-0.8767,-0.8766,-0.8755,-0.8756,-0.8757,-0.8782,0,0,0,0,0,0,-0.8924,-0.8918,-0.8918,-0.8891,-0.8884,-0.8867,-0.8849,-0.8843,-0.8835,-0.8832,-0.8809,-0.8804,-0.8788,-0.8778,-0.8775,-0.8779,-0.8765,-0.8755,-0.8756,-0.8756,-0.8781,-0.8783,-0.8786,0,0,0,0,0,-0.8926,-0.8928,-0.8918,-0.8913,-0.8883,-0.8867,-0.8863,-0.8843,-0.8835,-0.8835,-0.8819,-0.8805,-0.8781,-0.8778,-0.8774,-0.8778,-0.8755,-0.8756,-0.8756,-0.878,-0.8783,-0.8786,0,0,0,0,0,0,-0.8957,-0.8924,-0.8913,-0.8905,-0.8889,-0.8862,-0.8861,-0.8847,-0.8834,-0.8833,-0.8809,-0.8804,-0.8799,-0.8787,-0.8784,-0.8777,-0.8766,-0.8766,-0.8785,-0.8788,-0.879,-0.8793,-0.8764,0,0,0,0,0,-0.8963,-0.8952,-0.8924,-0.892,-0.8912,-0.8888,-0.8881,-0.8866,-0.8849,-0.8843,-0.8826,-0.8811,-0.88,-0.8793,-0.8782,-0.8779,-0.8773,-0.8779,-0.8782,-0.8784,-0.8785,-0.8782,-0.8785,-0.876,-0.876,-0.876,0,0,-0.8976,-0.8956,-0.8951,-0.8926,-0.8912,-0.8902,-0.8883,-0.8873,-0.8866,-0.8842,-0.8832,-0.882,-0.8802,-0.8796,-0.8793,-0.8786,-0.879,-0.8785,-0.8787,-0.8787,-0.8783,-0.8786,-0.8788,-0.876,-0.876,-0.876,0,0,-0.8993,-0.8976,-0.8971,-0.8957,-0.8935,-0.8919,-0.8917,-0.8892,-0.8882,-0.8872,-0.8853,-0.8845,-0.8827,-0.8814,-0.8806,-0.8817,-0.8804,-0.8814,-0.8828,-0.8825,-0.8827,-0.8829,-0.8833,-0.8835,-0.8815,-0.8815,-0.8815,0,-0.9011,-0.8994,-0.8971,-0.8962,-0.8951,-0.8927,-0.8922,-0.891,-0.8886,-0.888,-0.8873,-0.8849,-0.8835,-0.8826,-0.8829,-0.8822,-0.8821,-0.8817,-0.8829,-0.883,-0.8831,-0.8835,-0.8837,-0.8816,-0.8816,-0.8816,-0.8816,0,-0.9018,-0.9006,-0.9005,-0.898,-0.897,-0.8964,-0.894,-0.8933,-0.8919,-0.8904,-0.8894,-0.8876,-0.8861,-0.8857,-0.8845,-0.8846,-0.8843,-0.8833,-0.8821,-0.8835,-0.8838,-0.884,-0.8818,-0.8818,-0.8817,-0.8817,0,0,-0.9054,-0.9016,-0.9016,-0.9004,-0.8978,-0.8969,-0.8961,-0.8944,-0.8938,-0.8923,-0.8916,-0.8901,-0.889,-0.888,-0.8866,-0.8864,-0.8874,-0.8854,-0.8853,-0.8858,-0.8875,-0.8883,-0.8885,-0.8865,-0.8866,-0.8866,-0.8877,0,-0.9067,-0.905,-0.9029,-0.902,-0.9009,-0.8986,-0.8979,-0.8963,-0.8948,-0.8938,-0.8923,-0.8912,-0.8899,-0.8893,-0.889,-0.8874,-0.8878,-0.8873,-0.886,-0.886,-0.8865,-0.8887,-0.8896,-0.8907,-0.8878,-0.8878,-0.8878,0,-0.9081,-0.9064,-0.9054,-0.9027,-0.9022,-0.9016,-0.8999,-0.8989,-0.897,-0.896,-0.8948,-0.8932,-0.8924,-0.8913,-0.8901,-0.8898,-0.8892,-0.8883,-0.8883,-0.8882,-0.887,-0.8886,-0.891,-0.8912,-0.888,-0.888,-0.888,0,-0.9108,-0.9084,-0.9074,-0.9065,-0.9034,-0.903,-0.9018,-0.8998,-0.8989,-0.8974,-0.8968,-0.8953,-0.8945,-0.8934,-0.8915,-0.8909,-0.8906,-0.8893,-0.8897,-0.8898,-0.8898,-0.8899,-0.8922,-0.8894,-0.8894,-0.8894,-0.8894,0,-0.9125,-0.912,-0.9086,-0.908,-0.9073,-0.9049,-0.9043,-0.9029,-0.9011,-0.9003,-0.8982,-0.8975,-0.895,-0.894,-0.8925,-0.8918,-0.8915,-0.8907,-0.8903,-0.8909,-0.891,-0.8904,-0.8903,-0.8894,-0.8894,-0.8894,-0.8894,0,-0.9156,-0.9132,-0.912,-0.9091,-0.9084,-0.908,-0.9056,-0.905,-0.9034,-0.9023,-0.902,-0.8995,-0.8982,-0.8961,-0.8943,-0.8933,-0.8929,-0.8922,-0.8935,-0.8932,-0.8938,-0.8938,-0.8958,-0.896,-0.8931,-0.8932,-0.8932,0,-0.9168,-0.9163,-0.9133,-0.9125,-0.9112,-0.91,-0.909,-0.9066,-0.9057,-0.9034,-0.9031,-0.9016,-0.9003,-0.8984,-0.8965,-0.8951,-0.8944,-0.8953,-0.8942,-0.8948,-0.8945,-0.8945,-0.8945,-0.8955,-0.8956,-0.8956,-0.8956,0,-0.9193,-0.9181,-0.9167,-0.9148,-0.9137,-0.9121,-0.9105,-0.91,-0.9073,-0.9064,-0.9049,-0.9039,-0.9019,-0.9005,-0.8988,-0.8977,-0.8962,-0.8959,-0.896,-0.8966,-0.8973,-0.8969,-0.8941,-0.8959,-0.8959,-0.8959,-0.8959,-0.8958,-0.9215,-0.9209,-0.9186,-0.9171,-0.9156,-0.9141,-0.9133,-0.9115,-0.9103,-0.9084,-0.907,-0.9057,-0.9038,-0.9014,-0.9002,-0.8992,-0.8986,-0.8987,-0.8987,-0.8987,-0.8989,-0.8974,-0.8989,-0.8989,-0.8989,-0.8989,-0.8989,0,-0.9239,-0.9223,-0.9209,-0.9185,-0.9174,-0.9159,-0.914,-0.9132,-0.9119,-0.9102,-0.9089,-0.9073,-0.9059,-0.9038,-0.9023,-0.9019,-0.9012,-0.9016,-0.9016,-0.9013,-0.8996,-0.8997,-0.9021,-0.9021,-0.9021,-0.9021,-0.9021,-0.9021,-0.925,-0.9239,-0.9224,-0.9206,-0.919,-0.9176,-0.9166,-0.9152,-0.9138,-0.912,-0.9108,-0.9094,-0.9076,-0.9058,-0.9045,-0.904,-0.9035,-0.9041,-0.9034,-0.9018,-0.9015,-0.9012,-0.9013,-0.904,-0.904,-0.9052,-0.9052,-0.9052]},{"header":{"parameterUnit":"m.s-1","parameterCategory":1,"la1":30.2991,"la2":30.254,"lo1":-89.0895,"lo2":-89.0444,"dy":0.0017,"dx":0.0017,"nx":28,"ny":28,"refTime":"2024-05-21T09:00:00:Z","depth":0,"parameterNumber":3,"parameterNumberName":"V-component_of_WINDS"},"data":[0,0,0,0,0,0,0,0,0,0,0,0,0,0,0,0,0,0,0,0,0,0,0,0,0,0,0,0,0,0,0,0,0,0,0,0,0,0,0,0,0,0,0,0,0,0,0,0,0,0,0,0,0,0,0,0,0,0,3.8553,3.8553,0,3.8516,3.8515,3.8515,3.8447,3.8446,3.8444,3.8443,3.8406,3.8406,3.8406,0,0,0,0,0,0,0,0,0,0,0,0,0,3.8567,3.8567,3.8553,3.8553,3.8552,3.8516,3.8515,3.8515,3.8447,3.8446,3.8444,3.8443,3.8406,3.8406,3.8406,0,0,0,0,0,0,0,0,0,0,0,0,0,3.8549,3.8567,3.8553,3.8514,3.851,3.8516,3.8515,3.8515,3.8448,3.8446,3.8444,3.8442,3.8406,3.8406,3.8406,3.8448,0,0,3.8407,3.8408,0,0,0,0,0,0,0,0,3.855,3.8548,3.852,3.8517,3.8513,3.8484,3.8507,3.8492,3.8448,3.8471,3.8443,3.8441,3.8434,3.8431,3.8429,3.8446,3.8444,3.8407,3.8408,3.8408,3.8408,0,0,0,0,0,0,0,3.8551,3.855,3.8538,3.852,3.8515,3.8499,3.8494,3.8504,3.8464,3.8469,3.8464,3.8461,3.8431,3.8429,3.8427,3.8444,3.8407,3.8408,3.8408,3.8408,3.8492,3.8494,0,0,0,0,0,0,3.8558,3.8551,3.854,3.8537,3.8527,3.85,3.8495,3.8495,3.8464,3.8457,3.8462,3.8458,3.8429,3.8427,3.8426,3.8471,3.8408,3.8408,3.8408,3.849,3.8492,3.8494,0,0,0,0,0,0,3.8559,3.8558,3.8541,3.8543,3.8539,3.8502,3.8503,3.8496,3.8493,3.8458,3.8451,3.8467,3.8427,3.8425,3.8442,3.8468,3.8408,3.8409,3.8487,3.849,3.8493,3.8562,0,0,0,0,0,0,3.8559,3.8558,3.8573,3.8544,3.854,3.8558,3.8505,3.8496,3.8494,3.8487,3.8461,3.8455,3.8426,3.8442,3.8443,3.8468,3.8409,3.8485,3.8489,3.8492,3.8557,3.8567,3.8575,0,0,0,0,0,3.856,3.8595,3.8575,3.8574,3.8558,3.856,3.8558,3.8523,3.8496,3.8511,3.8489,3.8456,3.8466,3.8445,3.8445,3.847,3.8483,3.8488,3.8492,3.8553,3.8565,3.8575,0,0,0,0,0,0,3.8629,3.859,3.8567,3.8593,3.858,3.8548,3.8566,3.8537,3.8532,3.8526,3.8484,3.8479,3.8501,3.8488,3.8464,3.8508,3.8469,3.8474,3.8516,3.8527,3.8536,3.8538,3.8409,0,0,0,0,0,3.8647,3.8652,3.8618,3.8644,3.8639,3.8604,3.8604,3.8578,3.8563,3.8558,3.8537,3.8524,3.8524,3.8525,3.8523,3.8555,3.8548,3.8573,3.8582,3.859,3.8594,3.8609,3.8619,3.8509,3.8509,3.8509,0,0,3.8685,3.8664,3.867,3.8657,3.8644,3.865,3.86,3.8608,3.8612,3.8559,3.8573,3.8558,3.854,3.8565,3.8575,3.8554,3.8623,3.8596,3.8602,3.8602,3.8614,3.8625,3.8634,3.8512,3.8512,3.8511,0,0,3.8755,3.8741,3.876,3.8748,3.8729,3.8706,3.8711,3.8683,3.8671,3.8684,3.8644,3.8649,3.865,3.8639,3.8634,3.8701,3.867,3.8702,3.8749,3.8764,3.8772,3.878,3.8802,3.8811,3.8706,3.8707,3.8707,0,3.8804,3.8811,3.8774,3.8785,3.8781,3.8733,3.8752,3.8742,3.8724,3.8722,3.87,3.87,3.8685,3.8706,3.8722,3.872,3.8724,3.8704,3.8774,3.8781,3.8787,3.8808,3.8817,3.871,3.871,3.871,3.8709,0,3.8872,3.8877,3.8896,3.8878,3.8876,3.8892,3.8857,3.8859,3.8834,3.8813,3.8828,3.8808,3.8801,3.8805,3.8781,3.8822,3.881,3.8782,3.8741,3.8802,3.8821,3.8829,3.8716,3.8715,3.8713,3.8713,0,0,3.8984,3.8946,3.8953,3.8944,3.892,3.8923,3.8937,3.893,3.8932,3.8921,3.8931,3.8933,3.8906,3.8901,3.8875,3.8889,3.8941,3.8858,3.8857,3.8873,3.8984,3.9004,3.9014,3.8921,3.8923,3.8924,3.8984,0,3.9048,3.9068,3.9035,3.9062,3.9066,3.9021,3.9032,3.9019,3.9,3.9001,3.898,3.8982,3.8947,3.8943,3.8955,3.8933,3.8963,3.8928,3.8929,3.8929,3.8933,3.9024,3.9045,3.9103,3.8992,3.8993,3.8994,0,3.9126,3.9118,3.9145,3.9119,3.9119,3.913,3.912,3.9122,3.9106,3.9091,3.9084,3.9054,3.9065,3.9028,3.9042,3.9019,3.9017,3.9007,3.9008,3.9006,3.8964,3.9022,3.9121,3.913,3.9006,3.9005,3.9004,0,3.9203,3.92,3.9215,3.9209,3.9179,3.9187,3.9175,3.9157,3.9155,3.9147,3.9144,3.9138,3.9135,3.913,3.9099,3.9075,3.9117,3.9077,3.9104,3.9105,3.9113,3.9113,3.9212,3.9115,3.9115,3.9115,3.9115,0,3.9277,3.9295,3.9249,3.9259,3.9278,3.924,3.926,3.9244,3.9228,3.9233,3.9195,3.92,3.916,3.9161,3.9137,3.9152,3.9151,3.9138,3.9131,3.9141,3.9142,3.9138,3.9133,3.9117,3.9117,3.9116,3.9116,0,3.9366,3.9336,3.9349,3.932,3.9313,3.9328,3.9302,3.931,3.9288,3.9296,3.9295,3.9262,3.9262,3.923,3.9224,3.9208,3.9232,3.9218,3.9237,3.9232,3.926,3.9257,3.9359,3.937,3.9268,3.9269,3.927,0,3.9414,3.9427,3.9398,3.9399,3.9389,3.9391,3.9388,3.9352,3.935,3.9332,3.9342,3.9339,3.9334,3.9335,3.931,3.9305,3.929,3.9326,3.9289,3.9298,3.9289,3.9288,3.9288,3.9333,3.9335,3.9336,3.9337,0,3.9503,3.9488,3.9485,3.9477,3.9475,3.9467,3.9457,3.946,3.942,3.9421,3.942,3.9416,3.9409,3.9406,3.9396,3.9383,3.9353,3.9349,3.9354,3.9363,3.9373,3.9367,3.9257,3.9346,3.9345,3.9345,3.9344,3.9344,3.9572,3.9581,3.9562,3.956,3.9549,3.954,3.9545,3.9525,3.9523,3.9514,3.9493,3.9496,3.9478,3.9462,3.9452,3.9453,3.9434,3.9443,3.9445,3.9447,3.9452,3.9374,3.9451,3.9451,3.945,3.945,3.945,0,3.9658,3.9644,3.9642,3.9629,3.9628,3.96,3.9587,3.9588,3.959,3.9576,3.9572,3.9571,3.9567,3.9542,3.9536,3.9541,3.9527,3.9541,3.9539,3.9536,3.9469,3.9464,3.9552,3.9552,3.9552,3.9552,3.9552,3.9552,3.9702,3.9716,3.9698,3.9705,3.9691,3.9692,3.9687,3.9679,3.9667,3.9667,3.9664,3.9648,3.9629,3.9621,3.9617,3.9609,3.9608,3.9626,3.9614,3.9551,3.9541,3.9532,3.9527,3.9626,3.9626,3.968,3.9681,3.9681]}]]